TimeBST,TemperatureF,Dew PointF,Humidity,Sea Level PressureIn,VisibilityMPH,Wind Direction,Wind SpeedMPH,Gust SpeedMPH,PrecipitationIn,Events,Conditions,WindDirDegrees,DateUTC
12:50 AM,59.0,55.4,88,29.30,6.2,SSE,18.4,-,N/A,,Mostly Cloudy,160,2013-10-22 23:50:00
1:50 AM,59.0,55.4,88,29.27,3.1,SSE,20.7,32.2,N/A,Rain,Rain Showers,160,2013-10-23 00:50:00
2:50 AM,59.0,55.4,88,29.27,6.2,South,19.6,-,N/A,Rain,Rain Showers,170,2013-10-23 01:50:00
3:50 AM,58,54,83,29.26,16,SSW,21.9,,,Rain,Rain,200,2013-10-23 02:50:00
3:50 AM,57.2,53.6,88,29.24,6.2,SSW,21.9,34.5,N/A,,Scattered Clouds,200,2013-10-23 02:50:00
4:50 AM,57.2,53.6,88,29.24,6.2,South,18.4,-,N/A,,Mostly Cloudy,180,2013-10-23 03:50:00
5:50 AM,57.2,53.6,88,29.27,6.2,South,17.3,-,N/A,Rain,Rain Showers,190,2013-10-23 04:50:00
6:50 AM,57,54,88,29.27,9,SSW,25.3,,,Rain,Heavy Rain Showers,200,2013-10-23 05:50:00
6:50 AM,57.2,55.4,94,29.27,6.2,SSW,25.3,-,N/A,Rain,Light Rain Showers,200,2013-10-23 05:50:00
7:50 AM,57.2,53.6,88,29.30,6.2,SSW,19.6,31.1,N/A,,Mostly Cloudy,210,2013-10-23 06:50:00
8:50 AM,57.2,53.6,88,29.33,6.2,SSW,18.4,-,N/A,,Mostly Cloudy,210,2013-10-23 07:50:00
9:50 AM,57.2,53.6,88,29.39,6.2,SW,18.4,-,N/A,,Mostly Cloudy,220,2013-10-23 08:50:00
10:00 AM,57,53,83,29.39,16,SW,18.4,,,,Partly Cloudy,220,2013-10-23 09:00:00
10:50 AM,57.2,53.6,88,29.44,3.1,SW,20.7,-,N/A,Rain,Rain Showers,230,2013-10-23 09:50:00
11:07 AM,57.2,53.6,88,29.44,6.2,WSW,21.9,33.4,N/A,,Scattered Clouds,240,2013-10-23 10:07:00
11:50 AM,59.0,51.8,77,29.47,6.2,WSW,21.9,-,N/A,Rain,Light Rain Showers,240,2013-10-23 10:50:00
12:50 PM,59.0,53.6,82,29.50,6.2,WSW,19.6,-,N/A,,Scattered Clouds,240,2013-10-23 11:50:00
1:00 PM,59,53,73,29.53,22,WSW,19.6,,,Rain,Light Rain Showers,240,2013-10-23 12:00:00
1:50 PM,59.0,48.2,67,29.56,6.2,WSW,19.6,-,N/A,,Scattered Clouds,250,2013-10-23 12:50:00
2:50 PM,59.0,46.4,63,29.59,6.2,WSW,19.6,-,N/A,,Partly Cloudy,250,2013-10-23 13:50:00
3:50 PM,59.0,46.4,63,29.62,6.2,WSW,16.1,-,N/A,,Partly Cloudy,250,2013-10-23 14:50:00
4:00 PM,59,47,54,29.63,19,WSW,16.1,,,,Scattered Clouds,250,2013-10-23 15:00:00
4:50 PM,59.0,48.2,67,29.65,6.2,WSW,9.2,-,N/A,,Partly Cloudy,250,2013-10-23 15:50:00
5:50 PM,55.4,44.6,67,29.68,6.2,WSW,9.2,-,N/A,,Partly Cloudy,240,2013-10-23 16:50:00
6:50 PM,53.6,44.6,72,29.74,-9999.0,WSW,6.9,-,N/A,,Clear,240,2013-10-23 17:50:00
7:00 PM,53,45,67,29.74,19,WSW,6.9,,,,Clear,240,2013-10-23 18:00:00
7:50 PM,48.2,44.6,87,29.77,-9999.0,SW,6.9,-,N/A,,Clear,220,2013-10-23 18:50:00
8:50 PM,48.2,44.6,87,29.80,-9999.0,SW,8.1,-,N/A,,Clear,220,2013-10-23 19:50:00
9:50 PM,46.4,44.6,93,29.83,-9999.0,SSW,8.1,-,N/A,,Clear,210,2013-10-23 20:50:00
10:00 PM,47,45,88,29.84,16,SSW,8.1,,,,,210,2013-10-23 21:00:00
10:50 PM,46.4,42.8,87,29.83,-9999.0,SSW,5.8,-,N/A,,Clear,210,2013-10-23 21:50:00
11:50 PM,42.8,41.0,93,29.86,6.2,South,3.5,-,N/A,Fog,Shallow Fog,190,2013-10-23 22:50:00